sat.trackr.live / text

‹ back to catalog

STARLINK-30797

NORAD 58154 · 2023-166E

PAYLOAD ACTIVE UNKNOWN

§ Identity

Operator
Country
US
Launch date
2023-10-29
Launch site
AFWTR
Launch vehicle
Mass (kg)
RCS (m²)

Purposes: comms

External: N2YO · Heavens-Above · Gunter

§ Orbital elements

Epoch: 2026-05-24T17:10:20.699040Z

Period
94.11 min
Inclination
53.1604°
Eccentricity
0.0001128
Mean motion
15.30193147 rev/d
Perigee alt
474.5 km
Apogee alt
476.0 km
Semi-major
6,853.4 km
B*
2.2226e-5
RAAN
226.6472°
Arg perigee
75.7948°
Mean anomaly
284.3178°
Rev number
14,466

§ Raw data

STARLINK-307971 58154U 23166E   26144.71551735  .00000299  00000+0  22226-4 0  99992 58154  53.1604 226.6472 0001128  75.7948 284.3178 15.30193147144663

JSON: /api/v1/satellites/58154 · /tle

For live sub-satellite position, see the globe view (requires WebGL).

§ Visibility from observer

Set your observer location to see the next 7 days of passes ≥ 10°. The values pass through the URL so the page stays shareable.

No JS? Fill the form by hand. The geolocation button needs JavaScript.